Regional Weather Roundup
Issued by NWS

Home | Current Version | Previous Version | Graphics & Text | Print | Product List | Glossary Off
Versions: 1 2 3 4 5 6 7 8 9 10 11 12 13 14 15 16 17 18 19 20 21 22 23 24 25 26 27 28 29 30 31 32 33 34 35 36 37 38 39 40 41 42 43 44 45 46 47 48 49 50

000
ASUS43 KIND 050709
RWRIN

WEATHER ROUNDUP FOR INDIANA
NATIONAL WEATHER SERVICE INDIANAPOLIS IN
300 AM EDT THU MAY 05 2016

NOTE: "FAIR" INDICATES FEW OR NO CLOUDS BELOW 12,000 FEET WITH NO
SIGNIFICANT WEATHER AND/OR OBSTRUCTIONS TO VISIBILITY.

* - STATION DOES NOT REPORT WEATHER SUCH AS PRECIPITATION OR FOG.

+ - STATION NOT QUALITY CONTROLLED BY THE NATIONAL WEATHER SERVICE.
    USE DATA WITH CAUTION...ESPECIALLY DEWPOINT AND RELATIVE
    HUMIDITY OBSERVATIONS.

INZ001>003-010>013-019-020-050800-
NORTHWEST INDIANA

CITY           SKY/WX    TMP DP  RH WIND       PRES   REMARKS
GARY /AIRPORT/ CLOUDY    43  42  98 N23G33    29.87S
KNOX *+        CLOUDY    41  36  81 N18       29.79S
LA PORTE +     CLOUDY    42  42 100 N18G26    29.81R
MICHIGAN CITY+ CLOUDY    41  41 100 N15G24    29.83S
MONTICELLO +   CLOUDY    40  37  87 N18       29.77F
RENSSELAER +   CLOUDY    41  39  93 N13G22    29.82R
VALPARAISO     CLOUDY    40  37  89 N20G32    29.81F

$$

LMZ046-743>745-050800-
SOUTHERN LAKE MICHIGAN

STATION/POSITION TIME  TEMP    WIND        PRES    WAVE
                       AIR SEA DIR/SP/G            HT
                 (UTC) (F)     (DEG/KT/KT) (MB)    (FT)
BURNS HARBOR     0612   42     360/ 24     1010.5S
MICHIGAN CITY    0600   41     340/ 35/ 41   N/A

$$

INZ004-005-014>016-021>024-050800-
NORTH CENTRAL INDIANA

CITY           SKY/WX    TMP DP  RH WIND       PRES   REMARKS
GOSHEN         CLOUDY    43  40  89 NE8       29.77R
LOGANSPORT +   DRIZZLE   41  39  93 N12G20    29.76F
PERU/GRISSOM   LGT RAIN  41  41 100 N13       29.73S FOG
ROCHESTER +    CLOUDY    45  43  93 N13       29.75S
SOUTH BEND     CLOUDY    42  40  92 N15       29.79R
WARSAW +       CLOUDY    43  41  93 NE13      29.76R

$$

INZ006>009-017-018-025>027-050800-
NORTHEAST INDIANA

CITY           SKY/WX    TMP DP  RH WIND       PRES   REMARKS
ANGOLA *+      CLOUDY    39  37  93 CALM      29.75S
AUBURN +       CLOUDY    39  37  93 N5        29.77R
FORT WAYNE     CLOUDY    41  38  89 NE7       29.75S
HUNTINGTON +   CLOUDY    40  39  96 NE7       29.74S

$$

INZ028-029-035-036-043>045-051>053-050800-
WEST CENTRAL INDIANA

CITY           SKY/WX    TMP DP  RH WIND       PRES   REMARKS
CRAWFORDSVL +  FLURRIES  40  38  90 NW13      29.78F
GREENCASTLE +  CLOUDY    43  37  81 NW7       29.78F
LAFAYETTE      CLOUDY    41  38  89 N17G23    29.78F
TERRE HAUTE    CLOUDY    47  36  65 NW10G18   29.81F

$$

INZ030>032-037>040-046>048-054>057-064-065-050800-
CENTRAL INDIANA

CITY           SKY/WX    TMP DP  RH WIND       PRES   REMARKS
CP ATTERBURY + LGT RAIN  43  37  81 NW12G20   29.76F
FISHERS *+     CLOUDY    39  39 100 NW9G16    29.75
FRANKFORT +    DRIZZLE   41  40  97 N13G21    29.78S
GREENWOOD *+   CLOUDY    41  37  87 N10G22    29.76S
INDIANAPOLIS   LGT RAIN  42  38  85 NW17      29.74F
-EAGLE CREEK   LGT RAIN  42  38  85 NW17G25   29.75F
KOKOMO *+      CLOUDY    41  37  87 N12       29.74S
MARION +       CLOUDY    40  39  96 N8        29.74S FOG
SHELBYVILLE    CLOUDY    44  38  79 NW16G22   29.74F
ZIONSVILLE +   DRIZZLE   40  38  92 NW15G23   29.75F

$$

INZ033-034-041-042-049-050-058-059-050800-
EAST CENTRAL INDIANA

CITY           SKY/WX    TMP DP  RH WIND       PRES   REMARKS
MUNCIE         LGT RAIN  42  39  89 N6        29.73F FOG

$$

INZ060-061-067>069-081>083-085>088-050800-
SOUTHWEST INDIANA

CITY           SKY/WX    TMP DP  RH WIND       PRES   REMARKS
EVANSVILLE     CLOUDY    50  42  74 W6        29.81F
HUNTINGBURG *+ CLOUDY    48  43  81 W7        29.79F
WASHINGTON +   LGT RAIN  49  46  90 NW3       29.79F

$$

INZ062-063-066-070>080-084-089>092-050800-
SOUTH CENTRAL AND SOUTHEAST INDIANA

CITY           SKY/WX    TMP DP  RH WIND       PRES   REMARKS
BEDFORD +      DRIZZLE   46  46 100 NW3       29.77F
BLOOMINGTON    CLOUDY    46  38  73 NW10      29.77F
MADISON *+     CLOUDY    45  37  76 W10       29.76F
NORTH VERNON + RAIN      45  45 100 NW12      29.75F
SEYMOUR +      CLOUDY    46  41  81 W12       29.76F

$$




USA.gov is the U.S. government's official web portal to all federal, state and local government web resources and services.